ECMWFFLT1_925_thetae_000.txt.gz
Theta_e
344 344 347 348 351 354 345 337 336 338 339 340 338 336 337 339 339 338 337 336 335 333 335 335 334 335 337 336 337 339 342 344 342 341 341 339 339 340 338 338 338 339 340 341 340 341 341 341 342 341 339 340 340 339 340 342 343 345 345 344 343 343 343
344 344 347 348 352 353 342 335 336 337 338 338 337 336 338 340 337 336 336 334 335 335 334 333 333 334 336 336 336 337 340 343 342 340 340 338 337 337 337 338 338 337 338 339 338 338 338 338 339 338 337 339 339 337 338 340 340 341 343 341 340 341 342
342 343 347 349 351 351 342 336 335 336 338 337 337 337 339 339 336 336 336 334 334 335 333 332 333 334 336 337 336 335 338 341 341 340 339 338 336 337 337 338 338 338 339 339 339 339 339 339 339 337 338 339 339 339 339 339 339 339 340 340 338 338 341
343 343 345 348 350 345 336 333 336 337 337 337 338 339 339 339 337 337 336 334 335 334 333 333 334 333 334 335 336 336 338 339 340 339 338 338 338 338 338 337 337 338 338 338 338 338 338 338 338 338 340 340 339 340 341 339 338 338 338 339 338 337 338
343 343 344 347 350 347 338 333 336 337 337 338 339 340 340 338 338 337 335 334 334 333 332 334 334 332 331 333 335 336 337 337 336 335 335 335 336 336 335 334 334 336 336 336 336 336 336 337 337 337 339 339 338 338 340 339 338 338 337 337 338 338 337
342 343 345 346 348 349 338 332 335 336 336 338 339 339 340 338 338 337 335 334 334 333 332 334 334 331 331 334 335 335 334 333 333 333 333 334 334 334 333 333 334 335 336 336 336 335 336 336 336 336 337 338 338 339 340 340 339 338 337 338 340 340 339
342 344 347 348 348 345 335 331 335 337 337 338 339 339 339 339 338 338 335 334 334 333 332 333 332 330 332 334 333 332 332 331 332 332 333 333 333 332 332 332 333 334 335 336 335 335 335 335 335 336 337 338 338 339 340 340 340 340 338 338 339 340 340
342 346 348 347 345 341 334 332 335 337 338 338 339 339 339 339 339 337 336 334 334 333 332 333 331 330 332 332 331 331 331 331 332 332 332 331 330 331 331 332 333 334 335 335 335 336 335 335 336 337 338 338 338 338 338 339 340 340 339 339 340 340 341
343 346 347 344 342 338 333 334 336 336 338 338 338 339 338 339 338 337 336 334 333 333 331 332 331 329 331 331 330 330 330 331 331 331 331 330 327 329 331 332 334 335 335 335 335 335 334 334 336 337 337 338 337 337 338 338 339 339 340 340 341 341 341
345 345 346 346 344 338 333 335 338 337 337 338 338 338 338 338 338 337 336 335 334 333 332 331 330 329 330 330 329 329 330 331 331 330 331 329 327 329 331 333 334 334 335 335 334 333 333 334 335 335 336 337 338 338 337 338 339 339 339 340 340 340 340
347 348 348 350 350 347 343 340 338 336 337 338 337 337 338 338 338 337 336 336 335 334 332 330 328 327 328 329 329 329 330 331 330 330 330 330 329 330 331 333 334 335 335 335 333 332 332 334 333 333 333 334 337 337 336 337 337 337 339 339 340 339 340
347 349 349 350 352 353 350 343 337 336 337 338 337 337 338 338 338 337 337 336 335 333 331 329 327 326 326 327 329 329 330 331 330 330 330 330 330 330 331 332 334 336 336 335 335 333 332 333 332 332 331 332 334 336 335 336 335 336 338 338 336 336 335
348 349 350 352 353 353 351 345 340 337 337 338 338 337 338 338 336 336 335 334 333 331 331 330 327 326 324 325 328 330 331 332 332 330 330 329 330 330 330 330 332 335 336 337 336 335 334 333 332 332 331 331 332 334 336 337 336 336 338 336 334 334 334
348 351 352 353 354 352 351 350 344 337 336 339 339 338 338 336 334 333 333 333 332 330 329 328 327 326 325 326 328 330 331 332 332 331 329 329 329 329 329 329 330 333 335 337 337 336 334 334 333 332 331 330 331 333 335 337 338 337 337 337 336 337 337
350 352 351 351 350 350 350 352 345 336 336 339 338 337 336 334 332 332 331 330 330 328 327 327 326 325 325 326 328 331 332 333 333 331 329 329 329 329 329 329 329 330 331 333 335 335 334 333 332 332 330 331 332 333 334 336 337 337 336 337 337 338 338
349 350 350 348 348 349 351 350 341 334 336 337 335 336 335 332 331 330 328 327 327 327 327 327 327 326 326 326 328 331 332 332 333 332 330 330 330 329 329 329 329 329 329 330 331 333 333 332 332 331 330 331 333 333 334 335 336 337 336 334 335 337 338
346 348 348 346 346 348 349 348 338 332 335 335 333 334 333 331 331 329 327 325 325 326 327 327 328 327 327 328 328 329 330 330 333 332 330 331 332 331 329 328 328 328 328 329 330 331 331 332 333 331 330 332 333 333 335 336 336 336 334 332 333 336 338
344 346 346 345 345 346 348 348 340 333 333 333 333 333 332 331 330 328 328 326 325 327 327 328 329 328 328 329 328 327 327 329 331 331 330 332 333 332 330 329 328 328 328 329 330 329 329 331 332 331 329 332 334 334 335 335 332 332 332 332 334 336 338
343 345 346 343 344 348 347 343 336 332 332 333 333 333 332 331 330 329 328 326 326 328 328 328 329 327 328 330 328 327 327 327 329 329 330 332 333 333 332 330 329 329 328 329 329 329 329 330 331 330 329 332 334 333 334 332 328 328 332 333 334 336 338
343 345 346 343 345 349 341 333 332 331 332 333 333 333 333 332 331 330 329 327 326 327 328 328 327 325 327 329 328 327 327 326 327 328 328 331 333 333 332 331 330 329 329 329 329 329 330 330 330 330 330 333 333 331 331 329 327 329 332 332 333 335 337
344 348 348 346 349 345 334 329 332 332 332 333 333 333 332 332 332 331 329 328 327 326 327 328 326 325 327 328 326 326 326 324 325 325 326 329 333 334 333 332 332 330 329 329 329 329 331 330 329 329 330 333 333 331 330 328 327 329 331 330 332 335 336
343 350 350 345 341 337 332 330 332 331 332 333 332 333 332 331 332 331 329 329 328 327 327 328 327 327 328 327 326 325 325 325 325 326 326 328 331 333 334 332 331 328 328 329 328 329 330 329 328 329 330 332 332 331 331 329 328 330 331 331 333 336 336
338 341 342 335 331 332 331 331 332 331 332 332 332 332 332 331 332 332 330 329 328 328 328 328 327 328 328 327 326 324 324 326 327 327 328 328 330 333 334 332 329 325 325 327 328 328 329 328 327 328 330 331 332 331 331 330 328 329 330 330 332 334 335
330 331 333 330 330 332 331 331 332 331 331 332 332 331 332 332 333 332 330 329 329 328 328 328 328 328 329 328 326 324 324 325 326 327 328 330 332 333 333 330 327 324 325 326 327 327 328 328 328 329 329 330 330 329 329 330 329 326 327 328 330 332 332
331 329 330 331 331 331 331 331 331 331 331 331 330 330 331 332 332 332 331 331 330 329 329 329 329 329 328 327 325 324 323 323 325 327 329 329 331 332 331 327 324 324 324 325 327 328 329 329 328 328 328 328 329 328 327 330 330 326 324 326 328 329 331
333 329 330 330 329 329 331 331 330 330 330 329 328 329 330 332 332 332 332 332 332 331 331 331 330 329 327 326 325 325 324 322 324 326 328 327 327 329 328 325 324 324 324 325 327 329 329 329 330 329 327 328 328 328 327 328 329 326 325 325 325 325 328
329 329 328 329 329 329 330 329 328 329 328 327 328 329 330 332 332 331 330 330 331 330 329 329 330 330 328 325 324 324 323 323 323 324 325 325 326 326 326 325 325 325 325 326 328 328 327 328 330 329 328 327 328 328 328 328 328 327 326 325 324 324 326
327 329 329 329 330 329 327 327 326 327 327 327 328 329 330 330 330 328 328 329 329 328 327 327 330 331 327 324 323 323 322 322 322 322 323 324 324 324 324 325 325 325 327 328 327 326 325 325 326 326 327 327 326 326 327 328 328 329 327 325 325 325 325
327 328 330 332 329 326 325 326 326 326 327 327 328 328 327 327 326 326 327 329 328 327 327 328 330 331 327 324 324 323 321 322 322 322 322 323 323 323 324 324 324 324 327 328 326 325 325 324 323 322 324 327 326 325 327 327 328 329 327 324 325 326 326
325 326 329 329 327 326 326 326 327 327 326 327 326 325 325 325 326 327 329 328 327 327 329 330 331 332 328 324 324 323 321 322 322 322 322 322 322 322 322 323 322 322 324 326 326 326 325 323 323 322 322 325 327 326 327 327 327 327 327 326 326 327 327
324 325 326 325 326 326 326 325 326 326 326 325 325 324 324 325 326 328 328 328 327 328 329 330 330 331 328 324 322 322 322 322 322 322 321 321 320 321 321 322 322 321 322 323 324 326 324 323 323 322 321 323 326 327 328 328 327 327 327 328 329 328 328
324 324 324 325 326 326 325 326 327 326 326 326 326 326 327 327 327 328 329 329 329 328 328 328 330 331 328 324 322 322 323 322 322 322 321 320 320 321 321 322 322 322 322 323 324 325 325 323 323 323 322 321 323 327 329 329 328 328 328 329 329 328 328
324 324 324 324 325 326 326 327 327 327 327 327 327 329 330 329 329 329 330 331 329 325 324 327 329 329 326 322 322 323 322 321 321 322 321 320 321 321 321 322 323 323 323 322 323 324 324 324 323 323 322 321 321 325 329 329 329 329 330 330 330 329 328
323 325 325 324 326 327 326 326 327 327 328 327 328 329 329 329 329 328 329 330 327 324 324 328 328 327 324 322 322 323 321 321 322 322 321 321 321 321 321 322 322 322 323 323 323 323 323 324 324 323 323 322 321 323 327 329 328 327 327 328 328 327 327
327 327 325 325 327 327 327 327 327 328 328 328 328 327 328 328 327 327 328 329 326 324 326 327 326 325 323 322 322 322 322 322 322 322 321 321 321 321 322 322 322 322 322 322 322 322 323 323 324 323 323 322 322 323 324 326 326 324 322 323 324 323 324
330 329 328 328 328 328 327 327 327 327 328 327 326 326 327 329 327 327 328 328 325 324 325 324 323 323 323 322 322 322 322 322 322 321 321 321 321 322 322 322 322 322 322 322 322 322 322 322 323 323 323 323 321 321 322 322 321 321 321 321 322 322 322
329 329 329 329 329 328 328 327 327 328 327 325 324 326 328 328 326 325 326 326 324 323 324 324 323 322 322 322 321 322 323 322 321 321 321 321 322 322 322 323 322 322 322 323 323 322 321 321 322 323 323 323 322 321 321 320 320 320 320 320 320 320 321
327 327 327 328 328 328 327 327 327 327 326 324 325 325 326 326 325 324 324 324 325 324 325 324 323 322 323 323 322 322 323 323 322 322 322 322 322 322 323 323 323 323 322 322 322 322 321 321 321 321 322 323 323 321 320 321 320 320 320 319 319 319 320

ECMWFFLT1_925_thetae_003.txt.gz
Theta_e
346 343 346 347 346 346 341 336 335 336 339 340 337 335 335 336 337 336 334 332 330 330 331 331 331 332 333 333 332 334 337 337 337 338 338 338 338 338 337 336 337 337 338 338 338 338 339 339 340 339 340 340 339 340 339 339 338 337 337 337 337 339 340
345 344 345 344 344 346 341 334 335 338 339 338 335 336 338 338 337 335 333 332 331 331 331 331 332 332 332 331 331 334 336 336 336 336 335 335 335 336 336 336 337 337 336 337 337 338 338 339 339 339 339 340 340 340 339 338 338 338 338 339 338 339 339
344 344 344 343 345 347 341 334 334 337 339 336 335 337 339 337 336 335 334 333 332 331 330 330 332 332 330 331 332 334 334 333 333 333 333 333 333 333 333 334 335 335 334 335 335 336 337 336 337 336 337 337 338 337 337 336 336 337 339 339 339 339 339
343 343 342 343 345 343 336 333 334 336 337 336 336 338 338 337 336 335 334 333 332 332 331 330 332 332 330 331 333 333 333 332 332 332 332 333 332 333 333 333 333 333 333 334 334 335 336 335 335 335 335 336 335 336 336 336 337 337 339 340 340 340 340
341 341 343 343 346 345 338 332 333 337 336 337 337 339 339 337 337 336 335 334 333 332 332 331 332 331 329 331 332 332 331 331 331 331 331 332 332 332 332 332 332 332 332 333 333 334 335 335 335 335 335 336 336 336 336 336 337 337 338 338 339 340 340
340 341 343 343 344 348 339 330 332 336 335 337 338 338 339 338 337 336 335 334 334 332 332 331 331 330 329 330 331 329 330 330 330 331 331 331 330 329 330 331 331 332 332 333 333 334 335 335 335 334 335 335 335 336 336 336 337 337 337 338 339 339 340
339 340 341 341 344 347 337 329 333 337 335 337 339 339 339 338 337 337 336 334 334 332 332 331 331 330 329 329 329 328 329 330 330 330 331 330 329 327 329 331 331 332 333 333 333 334 334 334 333 333 333 333 333 333 333 334 336 337 337 338 338 339 339
338 339 341 341 345 344 334 329 333 335 336 338 338 339 339 339 338 337 336 334 333 333 331 331 330 329 329 328 327 328 329 330 330 329 330 330 328 327 329 331 332 332 333 333 333 334 334 332 332 332 332 331 331 331 330 331 333 335 336 337 338 338 339
339 339 341 342 343 337 330 330 333 334 336 338 338 339 338 338 338 336 336 335 334 334 332 331 330 328 328 327 326 328 328 329 329 329 329 330 329 329 329 330 330 332 334 334 334 334 333 332 332 331 331 331 331 331 330 331 332 334 335 336 336 337 338
341 340 343 343 341 334 329 331 333 334 337 338 337 339 338 338 338 336 336 335 334 334 332 331 330 326 326 326 325 327 328 329 329 329 329 329 328 329 330 330 330 331 333 335 334 334 334 333 334 334 333 333 331 331 330 330 332 334 336 335 335 336 337
342 342 345 345 342 339 337 336 335 334 336 337 337 338 337 338 337 336 336 335 334 333 332 330 329 327 326 325 325 327 328 328 329 330 329 328 328 329 329 330 329 329 331 333 333 335 335 335 336 336 335 334 333 331 330 331 332 334 336 335 335 336 336
342 343 345 345 346 345 343 340 335 333 335 336 337 337 337 337 337 336 335 334 333 332 331 330 329 327 325 325 325 326 328 328 329 330 330 328 328 329 329 328 329 328 329 329 330 331 332 334 336 335 335 334 333 331 331 332 333 334 336 336 336 335 335
342 343 343 344 345 345 346 344 337 334 336 337 336 337 337 337 336 334 332 331 331 331 330 329 328 326 325 325 324 326 328 329 329 331 330 329 329 329 329 329 328 328 328 328 328 328 329 330 333 334 334 333 332 331 331 333 334 334 335 336 335 334 335
343 344 341 342 345 346 348 349 341 334 335 337 337 337 338 337 335 332 331 329 328 329 329 327 326 326 325 325 325 326 328 328 328 330 331 330 329 330 330 329 328 328 328 327 328 328 328 329 331 332 332 332 331 331 331 333 334 332 331 332 333 334 334
344 343 343 344 346 347 349 350 343 334 334 338 337 337 337 335 333 331 330 327 325 326 327 326 326 326 326 326 326 326 326 326 327 329 330 330 330 331 331 331 329 328 328 328 328 328 328 328 329 330 331 330 330 331 332 332 332 329 328 330 333 333 334
343 343 346 347 347 347 347 347 340 331 334 338 337 338 337 333 332 331 328 325 323 324 325 326 326 327 326 327 327 326 325 325 327 328 328 329 329 331 332 332 330 329 328 329 328 329 329 328 328 328 330 330 330 331 332 331 329 328 328 330 331 331 332
342 344 348 348 345 345 346 346 337 329 332 337 336 337 335 332 331 330 328 326 324 324 325 326 326 327 327 326 327 327 326 325 327 327 327 327 328 330 332 332 332 330 330 329 327 328 329 329 329 328 329 329 329 331 332 330 328 328 329 330 331 331 332
343 345 347 346 342 342 347 350 341 330 331 335 335 335 333 331 331 329 328 328 325 325 326 326 327 327 327 326 326 328 326 325 327 327 326 326 326 328 331 332 333 332 330 329 328 328 329 329 329 328 328 329 330 331 332 330 328 327 327 329 330 330 332
341 342 346 343 341 344 346 344 336 331 332 334 334 333 331 331 331 329 329 328 326 326 326 326 327 326 325 325 326 327 326 326 327 326 325 326 326 327 329 331 333 332 329 328 327 327 329 328 328 327 327 329 330 330 331 330 327 326 325 327 329 330 331
337 341 344 339 340 343 339 332 329 331 333 333 332 332 331 331 330 329 329 328 327 327 326 326 327 326 325 326 326 327 326 325 326 326 325 327 327 328 329 331 333 331 327 326 326 327 329 328 328 327 327 329 331 330 329 329 327 325 324 325 327 329 331
336 338 340 339 341 339 331 328 330 331 332 332 331 332 331 331 330 329 330 329 329 328 327 326 327 327 326 327 327 327 327 325 325 326 326 327 328 329 330 331 331 328 325 325 326 326 328 328 328 328 328 329 331 329 327 328 328 325 324 324 325 328 330
336 336 339 339 337 333 328 328 331 331 331 332 331 331 332 331 331 330 330 330 329 329 328 327 327 327 327 327 327 328 326 325 325 324 324 326 328 330 330 329 327 326 324 325 326 327 328 328 328 328 328 328 330 329 325 327 328 325 324 325 325 327 329
333 332 334 332 329 329 329 330 332 331 331 331 330 331 332 331 331 331 331 331 330 330 329 328 327 327 327 327 328 328 325 324 324 322 323 326 328 328 329 328 326 325 325 326 326 327 328 329 328 329 329 328 329 329 325 325 327 325 324 324 324 326 328
327 327 329 328 327 329 329 330 331 331 330 331 330 331 331 331 331 331 331 331 331 330 329 329 328 328 328 328 328 325 324 323 324 323 324 327 327 327 328 327 326 326 326 327 327 327 327 328 328 328 329 328 329 329 326 325 326 327 326 325 325 326 327
328 326 328 329 329 330 330 330 330 330 330 331 330 331 331 331 331 332 331 331 331 331 330 329 329 329 329 329 328 326 325 324 324 323 323 326 327 327 326 326 326 325 326 326 328 327 325 325 325 325 328 329 328 327 327 326 326 328 327 325 325 327 326
332 328 328 330 330 330 331 331 330 331 331 331 330 331 331 331 331 331 331 331 331 331 330 330 331 330 329 329 329 328 325 323 323 323 322 324 325 324 324 324 323 323 325 326 327 327 325 323 323 322 323 327 328 327 327 327 327 328 327 325 326 327 326
329 329 329 330 330 330 330 330 331 331 331 330 330 330 330 330 330 331 330 331 331 331 331 330 330 329 327 329 330 328 325 323 322 322 322 322 323 322 322 322 321 321 325 326 325 326 325 323 322 321 320 323 326 327 326 327 328 328 326 325 326 328 327
328 329 329 329 330 330 330 330 331 331 331 330 329 329 328 328 329 330 331 331 331 329 327 327 328 327 327 327 329 328 326 323 321 321 321 321 322 322 321 320 320 321 322 324 323 325 326 324 322 322 321 321 323 326 326 327 328 327 326 327 328 328 328
328 327 327 328 330 330 329 329 330 330 330 329 328 328 328 328 330 331 331 330 328 325 325 327 327 328 328 328 330 329 326 323 321 321 322 321 321 321 320 320 321 321 321 322 322 323 325 325 323 322 322 321 321 323 326 327 328 327 327 329 329 329 329
326 326 327 328 329 330 329 328 329 330 328 327 327 327 327 328 330 331 329 328 325 324 327 329 328 329 330 330 330 328 323 321 322 322 321 320 319 320 320 320 322 321 322 322 322 323 324 325 324 323 322 322 320 321 325 328 328 327 328 329 330 329 329
325 325 328 328 329 330 329 328 328 327 326 325 326 326 327 329 330 329 327 325 325 327 329 328 327 328 329 330 330 326 322 322 322 321 321 320 320 320 321 322 322 322 322 322 321 321 322 323 323 323 323 322 321 320 323 326 328 328 328 330 331 330 329
326 325 326 328 329 329 329 327 326 325 325 325 325 326 327 328 327 326 325 326 326 328 329 327 325 325 327 330 329 324 322 322 321 320 321 320 320 320 321 321 322 321 322 322 321 321 322 322 323 323 323 323 322 321 321 324 327 328 327 327 329 331 331
324 324 325 326 327 328 328 326 324 325 325 325 325 325 325 326 325 325 327 328 328 328 328 325 324 325 328 330 328 323 321 321 320 321 322 321 320 321 321 322 322 321 322 322 321 321 321 321 322 323 323 323 323 322 322 322 324 326 325 322 324 326 328
322 323 324 325 325 327 327 326 325 325 325 324 325 325 325 326 327 328 329 329 328 327 326 324 325 327 328 328 325 322 321 321 320 321 322 321 320 321 321 322 322 322 322 322 321 321 321 321 322 322 322 323 323 322 322 322 322 323 323 321 321 321 322
321 322 323 323 323 325 326 326 325 325 325 326 325 326 327 327 327 328 329 328 327 327 325 324 326 328 328 325 323 322 321 321 321 322 321 321 321 321 321 322 323 322 322 322 321 320 321 320 321 321 322 322 323 322 322 322 321 321 322 322 321 321 320
322 323 323 323 324 325 327 326 325 325 326 326 326 327 327 327 326 327 328 328 328 327 324 323 325 326 326 324 322 321 322 322 322 322 321 320 321 321 322 323 323 322 322 321 321 320 320 320 320 321 321 322 322 323 322 322 321 321 321 322 321 320 319
325 325 325 326 325 326 327 326 326 326 325 326 327 327 326 326 326 326 327 327 328 326 324 323 324 324 324 323 322 322 322 322 322 321 321 321 322 322 322 323 323 323 322 322 321 320 320 320 320 320 321 321 322 322 322 321 320 320 320 321 321 320 319
326 327 327 327 327 327 327 326 326 326 326 326 327 326 326 326 325 326 326 325 326 325 324 324 324 323 323 322 322 322 322 321 322 322 322 321 322 322 323 324 323 323 322 322 321 320 320 320 320 319 320 320 321 322 321 321 320 320 319 319 319 319 319

ECMWFFLT1_925_thetae_009.txt.gz
Theta_e
350 350 351 351 349 346 345 345 344 344 344 343 342 342 341 338 337 335 333 331 330 329 329 329 327 326 326 327 328 328 328 329 328 328 329 331 332 333 335 335 335 335 335 335 336 336 336 336 337 337 338 338 339 339 338 338 338 339 340 339 339 339 339
350 350 350 349 348 346 345 345 344 344 343 343 342 341 339 337 335 335 333 331 332 331 330 330 328 327 328 328 329 328 328 327 326 327 328 329 330 331 332 333 333 333 334 335 335 335 335 336 337 336 337 337 338 338 337 336 335 336 337 337 337 338 338
349 349 349 348 347 346 345 345 344 343 343 342 342 341 339 337 335 334 333 333 332 331 331 331 329 328 329 329 329 328 327 326 326 327 328 329 330 330 330 330 329 330 333 334 334 335 335 335 336 336 336 336 335 334 333 333 332 333 334 335 335 336 336
349 349 349 347 347 345 345 344 343 342 342 341 341 339 338 336 335 333 333 333 333 332 333 332 331 330 329 329 329 329 328 327 327 327 328 329 329 329 329 329 328 328 330 331 333 335 335 335 336 337 336 334 331 330 331 331 333 333 333 333 334 335 334
350 348 348 346 345 344 344 344 343 342 341 339 338 338 338 335 334 334 335 334 334 333 334 333 333 331 330 330 329 328 328 327 326 327 328 329 329 328 328 328 328 328 329 329 330 333 336 335 335 336 335 333 331 332 333 334 334 334 333 333 334 334 335
350 349 347 345 343 343 343 343 342 340 340 339 337 337 337 335 336 337 336 334 334 334 334 334 333 332 331 330 330 329 327 326 325 327 328 328 328 328 328 328 328 328 329 329 329 331 334 335 336 336 335 334 334 335 335 335 335 334 334 333 333 333 333
350 348 346 345 343 342 343 343 340 339 339 338 337 337 337 337 338 338 336 335 336 335 335 335 334 333 332 331 330 328 326 325 325 327 327 328 328 328 328 328 328 328 328 329 329 329 330 333 334 334 334 335 334 333 334 334 333 333 334 333 332 333 333
349 348 344 344 342 340 342 342 339 339 338 337 338 339 338 337 338 338 338 337 337 336 336 336 334 333 333 332 330 328 326 324 325 326 327 328 327 328 328 329 328 328 328 329 328 328 328 329 329 330 332 334 334 333 332 332 332 332 333 332 331 331 332
347 346 344 342 341 341 342 341 339 339 339 337 338 339 338 337 338 338 338 338 337 337 337 336 335 334 333 332 329 327 325 324 325 326 327 327 327 327 328 329 329 329 328 328 328 328 328 328 328 329 330 332 332 333 332 331 332 333 333 332 331 331 330
346 345 342 341 340 342 342 340 339 339 340 340 340 339 338 336 337 338 338 338 338 338 337 336 335 334 333 331 329 326 325 324 325 325 326 326 326 326 327 329 330 330 330 329 328 327 327 327 327 328 329 329 330 331 330 330 331 332 332 332 331 331 330
345 343 342 341 341 341 340 338 340 341 341 341 340 339 337 336 336 336 336 338 338 338 337 336 336 334 332 331 330 327 326 324 324 325 326 326 325 326 328 330 329 329 330 330 330 328 328 328 328 328 328 329 329 328 326 326 327 329 331 332 331 330 329
343 342 342 341 341 340 339 340 341 342 341 341 341 339 337 334 334 335 336 337 337 337 337 336 335 333 331 331 331 328 326 324 324 325 325 325 325 326 328 328 328 329 330 331 331 330 329 329 328 328 328 328 328 327 326 325 326 327 330 331 329 329 329
341 341 340 342 341 340 340 341 342 342 342 342 341 337 335 334 334 334 335 337 337 337 336 335 332 330 330 330 330 328 325 324 324 325 324 324 324 325 326 326 326 327 329 330 331 331 330 330 329 328 327 326 327 327 328 327 326 328 331 330 328 327 328
340 340 340 341 340 339 340 340 341 343 342 342 340 336 335 335 334 335 335 336 336 336 336 333 329 329 329 329 327 326 325 324 325 325 325 324 324 325 325 325 326 326 327 329 331 331 330 329 328 328 327 327 327 327 328 327 327 329 331 329 326 326 327
340 339 339 340 339 339 340 340 342 343 342 342 340 337 336 335 334 335 335 335 336 336 335 331 327 327 328 327 327 325 325 325 325 325 325 325 325 325 325 325 326 326 327 328 330 330 329 327 326 326 326 327 327 327 328 327 327 328 328 326 325 325 327
340 339 339 339 339 339 340 340 342 343 343 343 341 338 338 336 335 335 335 336 336 335 333 330 326 325 325 326 326 325 325 324 324 325 325 325 325 325 325 325 325 326 327 329 329 328 326 324 324 325 326 327 327 328 328 328 327 327 326 325 325 326 327
341 340 339 339 339 339 339 340 342 343 343 343 341 338 338 336 335 335 335 336 337 335 332 329 325 324 324 325 325 325 326 324 324 325 325 325 325 324 324 324 325 326 328 328 327 325 324 324 324 326 327 327 328 327 329 330 329 327 325 324 325 327 327
341 340 339 339 340 340 339 339 341 343 343 343 341 338 337 336 335 334 335 335 334 332 331 329 326 324 324 325 325 325 325 325 325 325 326 326 325 323 322 322 325 327 328 328 326 324 324 324 325 326 326 328 328 327 329 331 330 327 325 324 325 327 327
341 340 339 340 340 339 339 340 340 342 343 341 339 337 336 335 334 333 333 332 331 330 330 329 327 325 324 324 325 325 326 326 326 326 327 326 324 323 322 321 324 327 328 327 326 324 324 325 325 325 324 325 327 326 329 330 329 328 326 325 325 327 327
341 340 340 340 340 339 340 341 341 341 341 338 336 335 335 334 333 332 332 331 329 328 328 328 328 326 325 325 325 325 326 326 326 327 327 326 324 323 322 321 323 325 325 325 324 323 324 325 325 324 323 323 323 324 326 329 328 328 327 326 327 328 328
340 340 339 339 339 339 341 342 342 341 339 337 335 335 335 333 332 332 331 330 329 328 327 327 327 327 327 326 326 326 326 326 326 327 326 325 324 323 321 321 323 324 324 323 323 323 324 325 325 324 323 322 321 322 323 326 327 328 327 326 328 328 327
338 338 339 340 340 341 342 341 340 339 337 335 334 334 335 333 331 332 332 330 329 329 327 327 328 328 328 328 327 327 327 327 327 327 326 325 324 322 320 321 323 323 323 322 321 323 325 325 325 324 323 323 321 322 324 324 326 328 327 326 327 327 328
337 337 339 340 340 340 340 337 336 336 335 334 334 334 334 333 331 331 331 330 330 329 328 328 329 329 329 329 329 329 328 328 327 327 327 327 324 322 320 320 321 322 321 321 321 322 324 324 324 323 323 323 322 323 324 323 324 327 327 326 327 327 328
335 337 339 338 339 339 337 334 334 334 333 334 334 333 333 332 331 331 330 330 330 331 331 331 329 329 329 330 330 329 330 328 328 328 329 327 324 321 321 321 321 321 321 320 321 321 321 321 322 322 323 324 324 324 323 322 324 326 326 326 327 328 328
333 335 336 336 336 337 334 333 333 332 332 333 333 332 332 331 331 332 331 330 331 333 333 331 330 329 330 330 330 330 330 330 329 329 329 327 323 321 321 321 321 321 320 320 322 321 321 321 321 322 323 325 325 323 322 322 323 325 326 326 327 328 329
335 335 335 335 334 334 333 331 330 331 332 332 331 331 331 330 331 332 331 330 332 333 333 330 330 330 330 330 330 330 330 330 329 328 329 327 324 322 321 320 321 321 320 321 323 322 321 321 321 321 323 324 323 323 322 322 323 324 326 327 328 328 329
335 335 335 333 332 331 330 330 330 330 331 330 331 332 330 330 332 332 331 331 332 333 331 329 329 329 330 329 328 327 328 328 328 328 328 327 324 322 320 320 320 320 320 322 323 321 321 321 321 321 322 321 321 323 323 321 322 325 327 327 328 328 329
333 333 333 332 331 330 331 332 331 329 330 331 332 332 331 330 331 332 331 331 332 331 330 330 330 330 329 328 326 326 327 327 326 327 328 327 325 322 320 320 319 319 320 321 321 321 321 322 321 322 322 322 322 322 323 321 321 323 326 326 325 324 325
334 334 334 333 332 332 334 335 333 331 332 333 331 331 330 330 331 332 332 331 330 329 330 330 330 329 327 326 326 327 328 327 327 327 328 327 324 321 320 319 319 320 321 321 321 322 324 324 324 324 325 325 324 324 323 322 321 322 323 323 321 320 321
336 336 336 334 333 334 335 336 336 335 334 332 330 330 329 329 331 332 332 331 329 329 330 330 329 327 326 325 326 327 327 326 326 328 329 326 322 320 320 319 319 320 321 321 322 324 326 326 326 326 326 327 326 325 325 323 321 321 321 321 320 320 319
337 336 335 334 333 333 334 335 337 337 335 332 329 329 329 329 330 332 332 331 330 330 330 329 328 326 325 325 327 328 328 326 325 327 328 324 321 320 320 319 320 322 322 323 324 326 326 326 326 326 326 326 326 327 326 324 322 322 321 320 320 319 319
337 335 335 335 334 332 331 333 334 334 335 333 330 328 329 329 330 331 332 331 330 329 329 328 327 325 324 326 328 327 326 325 325 327 326 322 320 320 320 320 321 323 323 325 326 326 327 326 325 326 326 325 326 326 325 324 324 323 321 320 320 319 318
338 335 333 332 331 330 331 333 334 333 335 335 331 329 330 329 329 329 330 329 329 328 327 326 325 325 326 328 327 325 325 326 328 327 324 320 321 321 320 320 322 323 325 326 326 326 325 325 324 324 324 324 325 324 325 326 326 323 320 319 320 319 318
339 335 331 327 326 327 330 333 334 334 335 335 333 329 328 328 328 327 326 326 327 327 327 326 327 328 329 328 325 324 324 326 328 328 323 320 321 322 322 323 324 325 325 324 324 324 324 324 323 322 322 322 323 322 323 325 323 320 318 318 319 319 319
336 331 329 327 325 328 331 333 334 334 335 334 331 327 326 326 325 325 325 326 326 327 327 327 328 329 328 327 325 324 324 327 329 328 325 323 322 321 321 323 325 325 323 320 320 320 321 321 320 319 319 319 320 320 320 320 318 317 317 317 318 319 319
334 330 329 328 326 328 331 332 332 333 333 331 327 325 325 325 324 325 326 326 326 327 327 328 329 329 328 327 326 325 325 327 327 327 325 324 324 323 323 322 322 323 321 319 319 319 319 319 319 318 318 318 317 316 316 315 315 317 319 318 318 318 318
333 331 330 329 328 329 330 330 330 331 331 329 326 326 327 327 326 325 326 326 326 326 327 327 328 328 328 328 326 325 325 326 326 325 323 322 323 324 324 322 320 319 319 319 318 318 318 318 318 317 317 316 316 315 315 315 316 317 319 319 318 318 319
331 331 330 330 330 331 331 330 330 330 329 328 327 328 328 328 326 325 325 325 325 325 325 325 327 328 328 327 326 326 327 327 328 327 325 323 323 324 325 324 321 318 317 317 318 318 318 317 316 315 314 314 314 314 314 315 316 318 319 319 319 319 320

ECMWFFLT1_925_thetae_012.txt.gz
Theta_e
351 352 353 354 355 353 355 355 349 346 348 349 349 349 349 349 348 347 345 343 344 345 344 341 340 339 339 340 340 339 338 338 338 337 337 338 339 339 339 338 338 338 338 337 337 337 337 337 337 337 339 340 340 341 341 341 341 340 340 341 340 340 341
353 353 353 353 354 353 355 352 347 346 348 347 348 349 349 350 349 346 344 343 344 344 343 341 340 340 339 339 339 338 337 337 337 337 337 337 338 338 338 338 338 338 338 337 337 337 337 337 337 337 338 338 339 340 340 339 340 339 338 338 338 339 339
353 353 353 353 354 354 354 351 347 347 346 345 347 348 349 351 349 346 345 344 344 344 342 340 340 340 340 339 339 339 338 336 336 336 335 335 336 336 336 337 337 337 337 337 336 336 336 336 337 337 337 337 338 339 339 338 338 338 337 337 337 338 338
355 354 353 354 355 355 355 350 346 345 344 345 346 347 349 350 347 346 345 344 344 343 342 341 341 341 341 340 339 339 338 337 337 336 335 335 335 335 336 336 337 336 336 336 336 336 336 336 336 336 337 337 338 338 338 339 338 338 338 338 337 337 338
357 355 354 354 354 355 355 350 345 344 343 344 346 347 348 348 346 345 345 344 342 342 342 342 342 342 341 341 339 339 338 337 337 336 335 335 335 335 336 336 336 336 336 335 335 335 336 336 336 336 336 337 337 336 336 337 337 337 338 337 337 336 336
357 356 354 354 354 354 354 350 345 343 343 344 346 348 346 344 344 343 343 343 342 341 343 343 342 342 342 341 341 339 339 337 337 336 336 336 336 335 335 335 335 335 335 335 335 335 336 336 336 336 337 336 336 335 335 336 336 336 336 336 336 336 335
356 356 354 353 353 353 353 349 344 342 343 344 346 346 342 340 341 339 340 342 342 341 343 343 343 342 342 341 341 340 338 337 337 336 336 335 335 335 335 335 335 335 335 335 335 335 336 336 336 337 337 336 336 336 336 336 337 336 336 336 336 335 335
356 357 354 353 352 350 352 349 344 342 343 344 345 343 339 338 338 337 338 340 339 340 341 340 341 343 342 341 340 339 338 336 336 335 335 335 335 334 334 334 334 334 335 334 334 335 336 336 336 337 338 337 337 337 337 336 337 336 336 336 336 336 335
356 357 354 353 349 349 352 350 345 344 344 346 346 342 339 340 339 337 338 338 337 338 337 336 337 340 342 341 339 338 337 336 335 334 334 333 333 333 332 332 332 333 334 333 333 333 334 335 336 337 338 338 337 338 337 336 335 335 335 336 336 336 335
356 357 356 354 349 349 351 349 347 347 348 349 347 344 343 342 340 338 338 337 336 336 336 335 336 337 340 341 338 336 336 336 335 334 333 331 331 331 330 330 330 331 332 332 332 333 334 335 336 337 338 338 338 339 338 336 334 334 334 335 335 335 334
358 358 357 354 351 351 351 350 350 351 350 349 348 347 346 344 342 340 339 338 336 334 334 336 336 336 338 338 336 335 336 336 335 333 332 330 330 329 329 329 329 330 330 331 331 332 332 333 335 336 337 337 337 338 338 337 335 335 335 335 335 335 333
358 359 357 355 353 352 352 352 353 353 351 349 348 348 347 346 344 341 340 339 336 334 334 336 337 337 336 335 333 334 335 335 334 333 331 330 330 329 329 329 329 329 329 329 329 330 330 332 333 335 337 338 338 337 338 337 336 336 336 335 335 334 332
357 358 356 354 354 353 353 354 353 353 351 349 348 347 346 345 343 340 341 340 338 336 337 338 338 339 337 334 332 333 335 334 333 332 331 330 330 330 330 329 329 329 329 328 328 328 329 331 333 335 336 338 338 337 337 337 337 336 336 336 335 333 332
355 356 354 354 353 353 354 353 352 352 350 348 347 346 345 344 341 340 342 341 338 337 338 338 339 340 338 335 334 334 335 333 332 332 331 331 331 331 330 330 329 329 329 329 329 328 329 331 332 333 334 335 336 336 337 338 338 337 336 336 334 332 332
354 353 353 353 353 354 354 352 351 352 350 348 347 346 345 343 342 342 343 343 340 338 339 339 340 340 337 335 335 335 334 333 332 332 332 332 331 331 330 330 329 329 328 328 328 328 330 331 331 332 332 333 335 336 337 338 339 338 335 333 332 331 331
353 351 351 352 353 353 352 351 351 351 350 348 346 346 345 344 344 343 343 342 339 338 339 340 341 341 337 335 335 334 334 333 333 332 332 331 331 331 330 329 328 328 327 328 328 329 330 331 331 331 331 332 334 335 336 337 339 338 334 329 328 329 330
351 350 350 350 351 352 351 351 351 351 350 348 346 345 345 345 344 343 342 338 336 338 340 340 342 341 337 335 334 333 333 333 333 332 332 331 331 330 330 329 327 327 327 328 330 330 330 330 331 331 331 332 333 333 334 335 337 338 334 328 326 326 329
350 349 349 350 350 351 350 350 349 350 348 345 344 345 346 346 345 345 343 338 336 338 340 340 341 339 337 335 333 333 333 333 333 333 331 331 331 330 330 328 327 327 327 329 329 329 329 329 330 331 332 333 332 332 331 332 334 335 333 330 327 326 327
348 348 349 349 350 350 350 349 349 349 346 343 343 345 346 346 345 345 343 340 338 340 340 340 339 337 336 335 333 332 333 333 333 333 331 331 331 330 329 328 327 327 327 328 328 328 329 329 329 331 332 332 331 331 331 330 331 333 332 330 328 326 327
346 348 348 347 348 348 348 349 348 347 345 343 343 343 344 345 346 345 343 339 339 342 342 339 338 337 337 336 334 333 333 334 334 333 332 332 331 331 329 327 327 327 327 328 328 328 329 329 329 330 331 330 329 329 330 329 329 330 330 329 328 326 326
346 347 347 347 348 347 348 349 348 346 345 343 342 342 343 347 347 345 341 339 340 343 342 340 338 337 337 336 335 334 334 334 334 333 333 333 332 331 329 327 327 327 327 328 328 328 328 328 328 329 329 328 328 328 328 328 328 327 327 327 327 325 325
344 345 345 347 348 348 350 350 348 347 346 345 344 343 344 347 345 342 339 340 341 343 341 339 337 337 337 336 336 335 335 335 335 334 334 334 332 330 328 327 327 327 328 329 328 327 326 326 326 327 327 327 327 328 328 328 328 327 326 326 326 325 326
342 343 345 347 348 350 351 349 348 348 347 347 348 346 344 344 344 341 338 339 341 342 340 338 336 336 336 337 337 336 335 335 335 335 335 334 332 330 328 327 327 326 328 329 328 326 325 325 325 326 326 326 327 328 329 328 328 327 326 325 326 326 328
341 343 346 346 348 351 351 350 349 348 348 348 348 346 345 344 344 343 341 340 340 340 338 336 336 336 337 338 338 336 335 335 335 336 335 334 332 330 327 327 326 327 328 329 328 326 325 325 326 326 326 326 326 327 328 327 327 327 326 325 325 326 328
341 343 346 347 349 349 350 351 350 349 350 349 348 347 347 345 344 344 343 340 339 338 336 336 337 336 337 338 338 336 336 335 335 336 335 333 332 329 328 328 327 327 328 328 327 326 326 325 326 326 326 326 326 326 327 328 327 327 326 326 325 326 328
342 344 347 347 347 348 350 351 350 349 348 347 347 348 347 346 345 344 342 339 337 337 336 336 338 338 337 338 337 336 336 335 335 336 335 333 332 330 330 329 328 327 327 327 326 325 325 326 326 326 326 326 326 326 327 328 327 327 327 326 326 327 326
343 344 345 344 344 347 348 349 349 348 346 347 349 348 347 346 345 344 343 340 338 338 338 338 339 339 340 340 337 335 335 334 334 335 335 333 332 332 331 330 328 327 327 326 325 325 326 327 327 327 327 326 326 327 328 329 327 327 327 326 325 324 322
342 342 342 342 344 345 345 346 346 346 345 347 348 348 346 345 344 344 344 341 339 339 339 340 341 341 342 341 337 335 334 334 334 335 334 333 334 334 332 330 328 328 327 327 326 327 327 328 328 328 328 327 327 327 328 330 330 328 326 324 322 321 320
343 342 341 342 343 343 343 343 344 344 343 343 345 345 344 343 343 343 343 342 341 340 340 341 342 342 342 340 337 336 335 334 335 335 334 334 334 334 333 331 329 328 328 329 328 328 328 328 328 328 328 327 327 326 327 330 331 330 326 322 320 321 320
344 343 342 340 340 341 341 342 344 344 343 342 342 342 342 342 342 342 341 342 342 342 342 343 342 341 341 340 337 336 335 334 335 335 334 335 336 335 333 330 328 328 329 329 329 328 328 328 328 328 328 327 327 327 327 328 330 331 330 325 321 320 320
345 344 343 341 340 341 340 340 342 343 344 344 343 341 341 340 340 340 340 341 342 343 343 342 341 340 340 338 337 336 335 335 335 334 333 334 335 334 332 329 327 328 328 329 328 328 328 328 328 327 327 327 327 326 326 327 329 331 331 326 321 319 320
345 344 342 341 342 342 340 338 339 340 342 344 343 342 341 340 339 340 341 342 344 344 343 341 341 340 338 337 336 335 334 335 334 332 331 332 332 332 330 328 327 327 328 328 328 327 328 328 327 327 327 326 326 326 325 327 329 329 327 323 320 320 319
345 343 342 343 343 341 340 339 339 339 339 341 343 343 341 340 340 340 341 343 344 343 341 341 340 339 337 336 335 334 334 335 332 330 330 332 332 330 328 327 327 326 327 328 327 327 328 327 327 327 327 325 326 326 325 326 327 326 323 320 320 320 318
345 345 344 343 342 341 341 341 341 340 339 341 342 342 339 338 339 339 340 341 339 337 339 339 338 337 336 335 334 334 334 334 332 330 330 330 330 329 328 328 326 326 328 329 329 328 327 327 328 327 325 325 325 325 325 326 325 322 318 318 319 319 318
343 344 343 343 341 341 341 341 340 339 339 340 340 339 337 336 336 336 336 336 334 335 338 338 336 335 334 334 334 333 332 331 331 330 330 328 328 329 329 327 328 330 329 327 325 324 324 325 326 325 323 324 324 323 323 323 321 318 317 318 318 318 318
341 340 340 339 338 338 339 339 338 337 338 338 337 336 335 335 334 333 332 333 333 335 336 336 335 334 333 332 332 331 330 329 328 328 329 328 327 329 326 324 325 329 327 323 321 321 320 321 322 320 320 322 322 320 318 317 316 316 317 319 318 318 319
338 338 337 336 337 337 338 337 337 337 337 337 336 334 334 334 333 332 332 332 334 335 335 335 334 332 331 330 330 329 328 327 326 327 328 328 327 329 326 322 322 323 322 320 320 319 319 319 319 318 318 319 320 318 316 314 315 316 317 319 319 319 319
338 337 336 335 336 337 337 337 336 336 336 336 335 334 334 333 333 333 333 333 333 333 333 334 334 331 330 330 330 329 328 327 326 327 328 328 329 330 328 324 321 319 318 318 318 318 318 318 317 316 315 316 316 316 315 314 314 315 316 318 319 319 319